Voltar ao catálogo

FENGYUN 3F

AtivoMeteoSSO
NORAD 57490·PAYLOAD·🇨🇳 China

Lançado Aug 3, 2023 de Jiuquan Satellite Launch Center

Loading…

Próximas Passagens (próximas 24 horas)

TLE

AtualizadoSource: Space-Track

Época: Sep 14, 2026, 22:59 UTC

1 57490U 23111A   26257.95798902  .00000023  00000-0  31149-4 0  9991
2 57490  98.6758 326.2585 0001185 114.8364 245.2936 14.19951152161606

Acompanhe FENGYUN 3F em tempo real com AllMySat

Download on the App Store